Location: Artiguedieu
(43.5000°N, 0.5454°E)
Time: 20:46:25
(UTC+00:00)

Vanguard 1 - Pass Details

Date: 01 August 2021
Orbit: 652 x 3831 km, 34.3° (Epoch: 19 September)

Event Time Altitude Azimuth Distance (km) Brightness Sun altitude
Rises 10:50:06 0° 234° (SW) 3,025 12.6 60.0°
Reaches altitude 10° 10:52:23 10° 222° (SW) 2,228 12.1 60.2°
Maximum altitude 10:56:45 30° 161° (SSE) 1,555 12.3 60.7°
Drops below altitude 10° 11:03:04 10° 103° (ESE) 3,269 13.2 61.3°
Sets 11:07:11 0° 94° (E) 4,749 13.8 61.7°
